TimeICT,TemperatureF,Dew PointF,Humidity,Sea Level PressureIn,VisibilityMPH,Wind Direction,Wind SpeedMPH,Gust SpeedMPH,PrecipitationIn,Events,Conditions,WindDirDegrees,DateUTC
12:00 AM,84.2,73.4,70,29.74,5.6,Calm,Calm,-,N/A,,Scattered Clouds,0,2013-03-26 17:00:00
12:30 AM,82.4,73.4,74,29.74,5.6,Calm,Calm,-,N/A,,Scattered Clouds,0,2013-03-26 17:30:00
1:00 AM,82.4,73.4,74,29.74,5.6,Calm,Calm,-,N/A,,Partly Cloudy,0,2013-03-26 18:00:00
7:00 AM,80.6,71.6,74,29.77,5.6,Calm,Calm,-,N/A,,Unknown,0,2013-03-27 00:00:00
7:30 AM,82.4,71.6,70,29.77,5.6,Calm,Calm,-,N/A,,Unknown,0,2013-03-27 00:30:00
8:30 AM,86.0,73.4,66,29.80,5.6,Calm,Calm,-,N/A,,Unknown,0,2013-03-27 01:30:00
9:00 AM,87.8,73.4,62,29.80,-9999.0,Calm,Calm,-,N/A,,Clear,0,2013-03-27 02:00:00
9:30 AM,89.6,73.4,59,29.83,-9999.0,Calm,Calm,-,N/A,,Clear,0,2013-03-27 02:30:00
10:00 AM,91.4,71.6,52,29.83,-9999.0,Calm,Calm,-,N/A,,Clear,0,2013-03-27 03:00:00
10:30 AM,91.4,73.4,55,29.83,-9999.0,Variable,1.2,-,N/A,,Clear,0,2013-03-27 03:30:00
11:00 AM,93.2,71.6,49,29.80,-9999.0,Calm,Calm,-,N/A,,Clear,0,2013-03-27 04:00:00
11:30 AM,95.0,71.6,47,29.80,6.2,Calm,Calm,-,N/A,,Partly Cloudy,0,2013-03-27 04:30:00
12:00 PM,95.0,71.6,47,29.80,6.2,Variable,2.3,-,N/A,,Partly Cloudy,0,2013-03-27 05:00:00
12:30 PM,96.8,69.8,41,29.77,6.2,Calm,Calm,-,N/A,,Partly Cloudy,0,2013-03-27 05:30:00
1:00 PM,96.8,69.8,41,29.74,6.2,Variable,1.2,-,N/A,,Partly Cloudy,0,2013-03-27 06:00:00
1:30 PM,98.6,69.8,39,29.71,6.2,Calm,Calm,-,N/A,,Partly Cloudy,0,2013-03-27 06:30:00
2:30 PM,98.6,69.8,39,29.68,6.2,Calm,Calm,-,N/A,,Partly Cloudy,0,2013-03-27 07:30:00
3:00 PM,98.6,68.0,37,29.65,6.2,Variable,1.2,-,N/A,,Partly Cloudy,0,2013-03-27 08:00:00
3:30 PM,100.4,68.0,35,29.65,6.2,Calm,Calm,-,N/A,,Partly Cloudy,0,2013-03-27 08:30:00
4:00 PM,98.6,66.2,35,29.62,6.2,Calm,Calm,-,N/A,,Partly Cloudy,0,2013-03-27 09:00:00
4:30 PM,98.6,66.2,35,29.62,6.2,Variable,3.5,-,N/A,,Partly Cloudy,0,2013-03-27 09:30:00
5:00 PM,98.6,66.2,35,29.62,6.2,Variable,1.2,-,N/A,,Partly Cloudy,0,2013-03-27 10:00:00
5:30 PM,98.6,66.2,35,29.65,6.2,South,2.3,-,N/A,,Partly Cloudy,170,2013-03-27 10:30:00
6:00 PM,96.8,68.0,39,29.65,6.2,SSE,4.6,-,N/A,,Partly Cloudy,150,2013-03-27 11:00:00
6:30 PM,91.4,69.8,49,29.68,6.2,Variable,1.2,15.0,N/A,,Partly Cloudy,0,2013-03-27 11:30:00
7:00 PM,89.6,69.8,52,29.68,6.2,Calm,Calm,-,N/A,,Partly Cloudy,0,2013-03-27 12:00:00
7:30 PM,87.8,69.8,55,29.68,6.2,Calm,Calm,-,N/A,,Partly Cloudy,0,2013-03-27 12:30:00
8:00 PM,87.8,69.8,55,29.71,6.2,Calm,Calm,-,N/A,,Scattered Clouds,0,2013-03-27 13:00:00
8:30 PM,87.8,73.4,62,29.71,6.2,Calm,Calm,-,N/A,,Scattered Clouds,0,2013-03-27 13:30:00
9:00 PM,86.0,73.4,66,29.74,6.2,Calm,Calm,-,N/A,,Partly Cloudy,0,2013-03-27 14:00:00
9:30 PM,86.0,73.4,66,29.74,6.2,Calm,Calm,-,N/A,,Partly Cloudy,0,2013-03-27 14:30:00
10:00 PM,86.0,73.4,66,29.74,6.2,Calm,Calm,-,N/A,,Partly Cloudy,0,2013-03-27 15:00:00
10:30 PM,86.0,73.4,66,29.74,6.2,Calm,Calm,-,N/A,,Partly Cloudy,0,2013-03-27 15:30:00
11:00 PM,84.2,75.2,74,29.77,5.6,Calm,Calm,-,N/A,,Partly Cloudy,0,2013-03-27 16:00:00
11:30 PM,84.2,75.2,74,29.77,5.6,Calm,Calm,-,N/A,,Partly Cloudy,0,2013-03-27 16:30:00